FFT4545 KDEN-KSEA

Flight info

Callsign FFT4545
Flight time 2h 28m
Altitude 34000
Route DDRTH1 DDRTH IDA PDT CHINS5
Aircraft A21N/M-SDE2E3FGHIRWXY/LB1

Departure

Time 2026-05-08 03:51
Airport Denver International Airport (KDEN)

Arrival

Time 2026-05-08 06:19
Airport Seattle–Tacoma International Airport (KSEA)
Time Latitude Longitude Altitude Speed Heading
2026-05-08 02:28 39.85803 -104.67080 5372 ft 0 kts
2026-05-08 03:36 39.85794 -104.67080 5369 ft 3 kts
2026-05-08 03:37 39.85775 -104.67080 5368 ft 1 kts
2026-05-08 03:37 39.85756 -104.67080 5370 ft 3 kts
2026-05-08 03:37 39.85738 -104.67080 5370 ft 0 kts
2026-05-08 03:41 39.85739 -104.67080 5371 ft 3 kts 359°
2026-05-08 03:42 39.85748 -104.67132 5368 ft 7 kts 262°
2026-05-08 03:42 39.85737 -104.67204 5371 ft 9 kts 252°
2026-05-08 03:42 39.85704 -104.67283 5368 ft 11 kts 236°
2026-05-08 03:42 39.85658 -104.67370 5370 ft 13 kts 235°
2026-05-08 03:43 39.85605 -104.67470 5371 ft 14 kts 239°
2026-05-08 03:43 39.85593 -104.67601 5369 ft 16 kts 270°
2026-05-08 03:43 39.85593 -104.67749 5371 ft 17 kts 270°
2026-05-08 03:43 39.85593 -104.67909 5371 ft 18 kts 270°
2026-05-08 03:44 39.85595 -104.68081 5371 ft 20 kts 272°
2026-05-08 03:44 39.85598 -104.68259 5370 ft 17 kts 270°
2026-05-08 03:44 39.85592 -104.68375 5371 ft 12 kts 242°
2026-05-08 03:44 39.85518 -104.68399 5368 ft 12 kts 179°
2026-05-08 03:45 39.85426 -104.68399 5370 ft 14 kts 181°
2026-05-08 03:45 39.85334 -104.68401 5368 ft 6 kts 180°
2026-05-08 03:45 39.85283 -104.68401 5369 ft 8 kts 181°
2026-05-08 03:45 39.85223 -104.68415 5370 ft 10 kts 221°
2026-05-08 03:46 39.85202 -104.68506 5370 ft 12 kts 271°
2026-05-08 03:46 39.85203 -104.68619 5371 ft 13 kts 269°
2026-05-08 03:46 39.85202 -104.68748 5368 ft 15 kts 269°
2026-05-08 03:46 39.85199 -104.68889 5368 ft 16 kts 268°
2026-05-08 03:47 39.85196 -104.69043 5369 ft 18 kts 268°
2026-05-08 03:47 39.85197 -104.69209 5368 ft 19 kts 272°
2026-05-08 03:47 39.85200 -104.69385 5369 ft 18 kts 271°
2026-05-08 03:47 39.85202 -104.69480 5370 ft 6 kts 271°
2026-05-08 03:48 39.85202 -104.69488 5371 ft 0 kts 270°
2026-05-08 03:49 39.85202 -104.69496 5371 ft 3 kts 270°
2026-05-08 03:50 39.85202 -104.69541 5371 ft 7 kts 270°
2026-05-08 03:50 39.85206 -104.69619 5371 ft 10 kts 291°
2026-05-08 03:50 39.85267 -104.69658 5369 ft 11 kts
2026-05-08 03:50 39.85441 -104.69655 5371 ft 55 kts
2026-05-08 03:51 39.86058 -104.69648 5371 ft 120 kts
2026-05-08 03:51 39.87050 -104.69639 5375 ft 159 kts
2026-05-08 03:51 39.88241 -104.69631 5682 ft 169 kts
2026-05-08 03:51 39.89436 -104.69623 6205 ft 177 kts 360°
2026-05-08 03:52 39.90701 -104.69619 6595 ft 187 kts 357°
2026-05-08 03:52 39.92041 -104.69601 7036 ft 191 kts 358°
2026-05-08 03:52 39.93420 -104.69564 7409 ft 206 kts 358°
2026-05-08 03:52 39.94891 -104.69528 7825 ft 221 kts 358°
2026-05-08 03:53 39.96490 -104.69488 8192 ft 241 kts 358°
2026-05-08 03:53 39.98250 -104.69445 8520 ft 264 kts 358°
2026-05-08 03:53 40.00153 -104.69393 9103 ft 275 kts 358°
2026-05-08 03:53 40.02078 -104.69343 9889 ft 278 kts 358°
2026-05-08 03:54 40.04036 -104.69497 10381 ft 289 kts 346°
2026-05-08 03:54 40.06005 -104.70330 10655 ft 307 kts 336°
2026-05-08 03:54 40.07997 -104.71462 10829 ft 327 kts 335°
2026-05-08 03:54 40.10161 -104.72641 11096 ft 346 kts 336°
2026-05-08 03:55 40.12440 -104.73845 11432 ft 360 kts 336°
2026-05-08 03:55 40.14795 -104.75067 12054 ft 366 kts 336°
2026-05-08 03:55 40.17005 -104.76703 12743 ft 366 kts 322°
2026-05-08 03:55 40.18964 -104.78842 13465 ft 368 kts 318°
2026-05-08 03:56 40.20901 -104.81061 14085 ft 372 kts 317°
2026-05-08 03:56 40.22861 -104.83286 14677 ft 375 kts 318°
2026-05-08 03:56 40.24845 -104.85523 15274 ft 378 kts 318°
2026-05-08 03:56 40.26841 -104.87774 15877 ft 381 kts 318°
2026-05-08 03:57 40.28856 -104.90046 16485 ft 383 kts 317°
2026-05-08 03:57 40.30884 -104.92329 17107 ft 386 kts 317°
2026-05-08 03:57 40.32924 -104.94628 17697 ft 389 kts 318°
2026-05-08 03:57 40.34985 -104.96948 18279 ft 392 kts 318°
2026-05-08 03:58 40.37063 -104.99277 18807 ft 395 kts 317°
2026-05-08 03:58 40.39159 -105.01630 19377 ft 398 kts 317°
2026-05-08 03:58 40.41264 -105.03999 19880 ft 401 kts 317°
2026-05-08 03:58 40.43393 -105.06392 20383 ft 403 kts 317°
2026-05-08 03:59 40.45531 -105.08793 20861 ft 407 kts 317°
2026-05-08 03:59 40.47688 -105.11222 21331 ft 410 kts 317°
2026-05-08 03:59 40.49859 -105.13674 21793 ft 413 kts 317°
2026-05-08 03:59 40.52041 -105.16155 22270 ft 416 kts 317°
2026-05-08 04:00 40.54234 -105.18653 22735 ft 419 kts 317°
2026-05-08 04:00 40.56450 -105.21165 23179 ft 422 kts 317°
2026-05-08 04:00 40.58684 -105.23702 23583 ft 427 kts 317°
2026-05-08 04:00 40.60938 -105.26264 23980 ft 430 kts 317°
2026-05-08 04:01 40.63215 -105.28842 24370 ft 432 kts 317°
2026-05-08 04:01 40.65495 -105.31427 24771 ft 434 kts 317°
2026-05-08 04:01 40.67781 -105.34031 25160 ft 435 kts 317°
2026-05-08 04:01 40.70073 -105.36648 25601 ft 437 kts 317°
2026-05-08 04:02 40.72372 -105.39277 26015 ft 437 kts 317°
2026-05-08 04:02 40.74662 -105.41894 26578 ft 434 kts 317°
2026-05-08 04:02 40.76936 -105.44503 27114 ft 432 kts 317°
2026-05-08 04:02 40.79199 -105.47091 27646 ft 429 kts 317°
2026-05-08 04:03 40.81417 -105.49629 28194 ft 427 kts 317°
2026-05-08 04:03 40.85875 -105.54725 29286 ft 421 kts 317°
2026-05-08 04:03 40.88083 -105.57254 29782 ft 419 kts 317°
2026-05-08 04:04 40.90278 -105.59775 30209 ft 417 kts 317°
2026-05-08 04:04 40.92460 -105.62289 30606 ft 416 kts 317°
2026-05-08 04:04 40.93196 -105.63137 30735 ft 415 kts 317°
2026-05-08 04:04 40.95403 -105.65678 31133 ft 412 kts 318°
2026-05-08 04:05 40.97556 -105.68170 31563 ft 409 kts 318°
2026-05-08 04:05 40.99715 -105.70673 31990 ft 406 kts 318°
2026-05-08 04:05 41.01816 -105.73092 32357 ft 404 kts 318°
2026-05-08 04:05 41.03934 -105.75535 32690 ft 403 kts 318°
2026-05-08 04:06 41.06044 -105.77978 33011 ft 403 kts 318°
2026-05-08 04:06 41.08154 -105.80415 33327 ft 402 kts 318°
2026-05-08 04:06 41.10256 -105.82845 33653 ft 401 kts 319°
2026-05-08 04:06 41.12355 -105.85273 33950 ft 400 kts 318°
2026-05-08 04:07 41.14444 -105.87704 34079 ft 400 kts 318°
2026-05-08 04:07 41.16526 -105.90146 34081 ft 399 kts 318°
2026-05-08 04:07 41.20701 -105.95006 33989 ft 399 kts 318°
2026-05-08 04:08 41.24874 -105.99859 33956 ft 398 kts 319°
2026-05-08 04:08 41.28982 -106.04663 33996 ft 390 kts 319°
2026-05-08 04:09 41.33050 -106.09413 33984 ft 389 kts 319°
2026-05-08 04:09 41.37106 -106.14180 33983 ft 389 kts 319°
2026-05-08 04:10 41.41165 -106.18952 33985 ft 389 kts 319°
2026-05-08 04:10 41.45144 -106.23840 33983 ft 390 kts 313°
2026-05-08 04:11 41.48089 -106.29954 33987 ft 395 kts 301°
2026-05-08 04:11 41.50602 -106.36474 33952 ft 394 kts 301°
2026-05-08 04:12 41.53098 -106.42919 33968 ft 391 kts 301°
2026-05-08 04:12 41.55604 -106.49362 33963 ft 391 kts 301°
2026-05-08 04:13 41.58090 -106.55769 33961 ft 391 kts 301°
2026-05-08 04:13 41.60585 -106.62223 33960 ft 391 kts 301°
2026-05-08 04:14 41.63083 -106.68679 33955 ft 391 kts 301°
2026-05-08 04:14 41.65552 -106.75095 33945 ft 383 kts 302°
2026-05-08 04:15 41.67991 -106.81441 33945 ft 384 kts 302°
2026-05-08 04:15 41.70420 -106.87802 33999 ft 384 kts 302°
2026-05-08 04:16 41.72844 -106.94116 34029 ft 384 kts 302°
2026-05-08 04:16 41.75278 -107.00474 34079 ft 384 kts 302°
2026-05-08 04:17 41.77713 -107.06859 34073 ft 383 kts 302°
2026-05-08 04:17 41.80108 -107.13160 34104 ft 379 kts 302°
2026-05-08 04:18 41.82499 -107.19457 34107 ft 379 kts 302°
2026-05-08 04:18 41.84882 -107.25757 34107 ft 379 kts 302°
2026-05-08 04:19 41.87265 -107.32066 34101 ft 379 kts 302°
2026-05-08 04:19 41.89646 -107.38381 34097 ft 379 kts 302°
2026-05-08 04:20 41.92008 -107.44680 34016 ft 376 kts 303°
2026-05-08 04:20 41.94362 -107.50947 33988 ft 376 kts 303°
2026-05-08 04:21 41.96705 -107.57229 33951 ft 376 kts 302°
2026-05-08 04:21 41.99052 -107.63511 33921 ft 376 kts 303°
2026-05-08 04:22 42.01397 -107.69792 33927 ft 376 kts 302°
2026-05-08 04:22 42.03737 -107.76084 33907 ft 378 kts 303°
2026-05-08 04:23 42.06092 -107.82435 33924 ft 379 kts 303°
2026-05-08 04:23 42.08443 -107.88778 33918 ft 379 kts 303°
2026-05-08 04:24 42.10777 -107.95137 33919 ft 379 kts 302°
2026-05-08 04:24 42.13109 -108.01497 33920 ft 379 kts 302°
2026-05-08 04:25 42.15443 -108.07869 33916 ft 379 kts 302°
2026-05-08 04:25 42.17775 -108.14234 33936 ft 379 kts 302°
2026-05-08 04:26 42.20100 -108.20578 33921 ft 377 kts 302°
2026-05-08 04:26 42.22420 -108.26912 33927 ft 377 kts 302°
2026-05-08 04:27 42.24736 -108.33254 33927 ft 377 kts 302°
2026-05-08 04:27 42.27041 -108.39606 33924 ft 377 kts 302°
2026-05-08 04:28 42.29359 -108.45971 33911 ft 381 kts 302°
2026-05-08 04:28 42.31702 -108.52424 33944 ft 381 kts 302°
2026-05-08 04:29 42.34015 -108.58791 33930 ft 380 kts 302°
2026-05-08 04:29 42.36344 -108.65200 33927 ft 380 kts 302°
2026-05-08 04:30 42.38657 -108.71635 33936 ft 380 kts 302°
2026-05-08 04:30 42.40965 -108.78070 33899 ft 380 kts 302°
2026-05-08 04:31 42.43282 -108.84537 33935 ft 382 kts 302°
2026-05-08 04:31 42.45597 -108.91013 33953 ft 381 kts 302°
2026-05-08 04:32 42.47901 -108.97479 33953 ft 381 kts 302°
2026-05-08 04:32 42.50205 -109.03948 33957 ft 381 kts 302°
2026-05-08 04:33 42.52113 -109.09337 33954 ft 381 kts 302°
2026-05-08 04:33 42.54405 -109.15817 33951 ft 381 kts 302°
2026-05-08 04:34 42.56696 -109.22309 33965 ft 382 kts 302°
2026-05-08 04:34 42.58987 -109.28797 33961 ft 380 kts 302°
2026-05-08 04:35 42.61264 -109.35267 33963 ft 380 kts 302°
2026-05-08 04:35 42.63537 -109.41754 33953 ft 380 kts 302°
2026-05-08 04:36 42.65812 -109.48248 33925 ft 382 kts 302°
2026-05-08 04:36 42.68100 -109.54793 33940 ft 384 kts 302°
2026-05-08 04:37 42.70382 -109.61355 33957 ft 384 kts 302°
2026-05-08 04:37 42.72642 -109.67855 33958 ft 381 kts 301°
2026-05-08 04:38 42.73786 -109.71159 34122 ft 382 kts 301°
2026-05-08 04:38 42.74920 -109.74428 34131 ft 382 kts 301°
2026-05-08 04:38 42.77163 -109.80919 34096 ft 383 kts 301°
2026-05-08 04:39 42.79434 -109.87527 34131 ft 387 kts 301°
2026-05-08 04:39 42.81713 -109.94162 34132 ft 387 kts 301°
2026-05-08 04:40 42.83982 -110.00812 34113 ft 387 kts 301°
2026-05-08 04:40 42.86255 -110.07440 34070 ft 386 kts 301°
2026-05-08 04:41 42.88531 -110.14075 34007 ft 386 kts 301°
2026-05-08 04:41 42.90811 -110.20755 33986 ft 389 kts 301°
2026-05-08 04:42 42.93082 -110.27456 33988 ft 389 kts 301°
2026-05-08 04:42 42.95359 -110.34159 33991 ft 389 kts 301°
2026-05-08 04:43 42.97630 -110.40870 33998 ft 389 kts 301°
2026-05-08 04:43 42.99898 -110.47591 33972 ft 389 kts 300°
2026-05-08 04:44 43.02162 -110.54320 33997 ft 390 kts 300°
2026-05-08 04:44 43.04410 -110.61018 33990 ft 390 kts 300°
2026-05-08 04:45 43.06679 -110.67763 33995 ft 390 kts 300°
2026-05-08 04:45 43.08930 -110.74517 34001 ft 390 kts 300°
2026-05-08 04:46 43.11184 -110.81249 33988 ft 389 kts 300°
2026-05-08 04:46 43.13426 -110.88004 33964 ft 391 kts 300°
2026-05-08 04:47 43.15680 -110.94787 33979 ft 392 kts 300°
2026-05-08 04:47 43.17928 -111.01586 33987 ft 392 kts 300°
2026-05-08 04:48 43.20175 -111.08390 33978 ft 392 kts 300°
2026-05-08 04:48 43.22417 -111.15191 33975 ft 391 kts 300°
2026-05-08 04:49 43.24650 -111.22009 33963 ft 392 kts 300°
2026-05-08 04:49 43.26881 -111.28827 33967 ft 392 kts 300°
2026-05-08 04:50 43.29093 -111.35583 33960 ft 392 kts 300°
2026-05-08 04:50 43.31326 -111.42443 33938 ft 395 kts 299°
2026-05-08 04:51 43.33558 -111.49330 33944 ft 395 kts 299°
2026-05-08 04:51 43.35782 -111.56181 33945 ft 395 kts 299°
2026-05-08 04:52 43.38010 -111.63079 33930 ft 395 kts 299°
2026-05-08 04:52 43.40234 -111.69980 33940 ft 395 kts 299°
2026-05-08 04:53 43.42456 -111.76883 33947 ft 394 kts 299°
2026-05-08 04:53 43.44676 -111.83788 33961 ft 395 kts 299°
2026-05-08 04:54 43.46883 -111.90711 33982 ft 395 kts 299°
2026-05-08 04:54 43.49093 -111.97634 33987 ft 395 kts 299°
2026-05-08 04:55 43.51299 -112.04560 33989 ft 395 kts 299°
2026-05-08 04:55 43.53666 -112.11366 33990 ft 393 kts 301°
2026-05-08 04:56 43.56094 -112.18121 33985 ft 393 kts 301°
2026-05-08 04:56 43.58505 -112.24880 33975 ft 392 kts 301°
2026-05-08 04:57 43.60901 -112.31584 33885 ft 392 kts 301°
2026-05-08 04:57 43.63305 -112.38333 33877 ft 392 kts 301°
2026-05-08 04:58 43.65706 -112.45093 33845 ft 393 kts 301°
2026-05-08 04:58 43.68118 -112.51901 33857 ft 394 kts 301°
2026-05-08 04:59 43.70523 -112.58707 33863 ft 394 kts 301°
2026-05-08 04:59 43.72922 -112.65518 33858 ft 394 kts 301°
2026-05-08 05:00 43.75322 -112.72333 33852 ft 394 kts 301°
2026-05-08 05:00 43.77721 -112.79147 33854 ft 394 kts 301°
2026-05-08 05:01 43.80105 -112.85974 33854 ft 394 kts 301°
2026-05-08 05:01 43.82484 -112.92807 33853 ft 394 kts 300°
2026-05-08 05:02 43.84859 -112.99647 33820 ft 394 kts 300°
2026-05-08 05:02 43.87243 -113.06523 33854 ft 396 kts 300°
2026-05-08 05:03 43.89630 -113.13412 33864 ft 397 kts 300°
2026-05-08 05:03 43.92018 -113.20320 33874 ft 397 kts 300°
2026-05-08 05:04 43.94385 -113.27184 33872 ft 398 kts 300°
2026-05-08 05:04 43.96787 -113.34161 33882 ft 398 kts 300°
2026-05-08 05:05 43.99174 -113.41115 33882 ft 399 kts 300°
2026-05-08 05:05 44.01556 -113.48066 33893 ft 399 kts 300°
2026-05-08 05:06 44.03923 -113.54989 33901 ft 399 kts 300°
2026-05-08 05:06 44.06306 -113.61980 33912 ft 401 kts 299°
2026-05-08 05:07 44.08686 -113.68995 33902 ft 401 kts 299°
2026-05-08 05:07 44.11060 -113.76021 33899 ft 401 kts 299°
2026-05-08 05:08 44.13434 -113.83051 33893 ft 401 kts 299°
2026-05-08 05:08 44.15804 -113.90079 33890 ft 401 kts 299°
2026-05-08 05:09 44.18162 -113.97110 33893 ft 401 kts 299°
2026-05-08 05:09 44.20528 -114.04159 33895 ft 401 kts 299°
2026-05-08 05:10 44.24058 -114.14731 33858 ft 401 kts 298°
2026-05-08 05:11 44.26415 -114.21803 33875 ft 403 kts 298°
2026-05-08 05:11 44.28765 -114.28892 33900 ft 402 kts 298°
2026-05-08 05:12 44.31108 -114.35971 33974 ft 401 kts 298°
2026-05-08 05:12 44.33436 -114.43038 33903 ft 401 kts 297°
2026-05-08 05:13 44.35754 -114.50067 33918 ft 401 kts 298°
2026-05-08 05:13 44.38081 -114.57144 33916 ft 401 kts 298°
2026-05-08 05:14 44.40401 -114.64229 33936 ft 401 kts 297°
2026-05-08 05:14 44.42711 -114.71329 33944 ft 401 kts 297°
2026-05-08 05:15 44.45032 -114.78437 33943 ft 402 kts 297°
2026-05-08 05:15 44.47351 -114.85565 33936 ft 402 kts 297°
2026-05-08 05:16 44.49666 -114.92699 33969 ft 402 kts 297°
2026-05-08 05:16 44.51976 -114.99838 33973 ft 403 kts 297°
2026-05-08 05:17 44.54282 -115.06998 33963 ft 403 kts 297°
2026-05-08 05:17 44.56582 -115.14161 33968 ft 403 kts 296°
2026-05-08 05:18 44.58881 -115.21334 33980 ft 403 kts 296°
2026-05-08 05:18 44.61172 -115.28510 33972 ft 403 kts 296°
2026-05-08 05:19 44.63470 -115.35706 33981 ft 405 kts 296°
2026-05-08 05:19 44.65773 -115.42943 33991 ft 406 kts 296°
2026-05-08 05:20 44.67675 -115.48963 34005 ft 406 kts 296°
2026-05-08 05:20 44.69968 -115.56230 33993 ft 407 kts 296°
2026-05-08 05:21 44.72258 -115.63493 34001 ft 407 kts 296°
2026-05-08 05:21 44.74545 -115.70775 34029 ft 407 kts 296°
2026-05-08 05:22 44.76829 -115.78060 34043 ft 407 kts 296°
2026-05-08 05:22 44.79096 -115.85313 34066 ft 407 kts 296°
2026-05-08 05:23 44.81379 -115.92607 34069 ft 407 kts 296°
2026-05-08 05:23 44.83665 -115.99920 34110 ft 408 kts 296°
2026-05-08 05:24 44.85931 -116.07266 34111 ft 408 kts 296°
2026-05-08 05:24 44.88207 -116.14613 34111 ft 408 kts 296°
2026-05-08 05:25 44.90475 -116.21955 34111 ft 408 kts 295°
2026-05-08 05:25 44.92735 -116.29307 34032 ft 408 kts 295°
2026-05-08 05:26 44.94987 -116.36660 34025 ft 408 kts 295°
2026-05-08 05:26 44.97231 -116.44011 34022 ft 408 kts 295°
2026-05-08 05:27 44.99473 -116.51381 34029 ft 408 kts 295°
2026-05-08 05:27 45.01718 -116.58738 34023 ft 407 kts 295°
2026-05-08 05:28 45.03953 -116.66095 34026 ft 408 kts 295°
2026-05-08 05:28 45.06182 -116.73475 34027 ft 408 kts 295°
2026-05-08 05:29 45.08405 -116.80858 34030 ft 408 kts 295°
2026-05-08 05:29 45.10624 -116.88243 34032 ft 408 kts 295°
2026-05-08 05:30 45.12836 -116.95642 34034 ft 408 kts 295°
2026-05-08 05:30 45.15045 -117.03045 34038 ft 409 kts 294°
2026-05-08 05:31 45.17241 -117.10425 34043 ft 409 kts 294°
2026-05-08 05:31 45.19455 -117.17861 34036 ft 410 kts 294°
2026-05-08 05:32 45.21664 -117.25326 34102 ft 411 kts 294°
2026-05-08 05:32 45.23870 -117.32808 34110 ft 411 kts 294°
2026-05-08 05:33 45.26076 -117.40290 34106 ft 411 kts 294°
2026-05-08 05:33 45.28275 -117.47780 34098 ft 411 kts 294°
2026-05-08 05:34 45.30465 -117.55271 34094 ft 411 kts 294°
2026-05-08 05:34 45.32658 -117.62771 34082 ft 411 kts 294°
2026-05-08 05:35 45.34842 -117.70284 34066 ft 411 kts 294°
2026-05-08 05:35 45.37019 -117.77795 34067 ft 411 kts 294°
2026-05-08 05:36 45.39196 -117.85313 34067 ft 411 kts 294°
2026-05-08 05:36 45.41349 -117.92844 34069 ft 411 kts 294°
2026-05-08 05:37 45.43507 -118.00387 34068 ft 411 kts 294°
2026-05-08 05:37 45.45669 -118.07926 34067 ft 411 kts 293°
2026-05-08 05:38 45.47819 -118.15473 34062 ft 411 kts 293°
2026-05-08 05:38 45.49970 -118.23024 34058 ft 411 kts 293°
2026-05-08 05:39 45.52128 -118.30574 34059 ft 411 kts 293°
2026-05-08 05:39 45.54257 -118.38138 34055 ft 411 kts 293°
2026-05-08 05:40 45.56390 -118.45733 34062 ft 413 kts 293°
2026-05-08 05:40 45.58527 -118.53346 34044 ft 413 kts 293°
2026-05-08 05:41 45.60642 -118.60909 34040 ft 413 kts 292°
2026-05-08 05:41 45.62781 -118.68541 34025 ft 414 kts 293°
2026-05-08 05:42 45.64927 -118.76164 34021 ft 414 kts 292°
2026-05-08 05:42 45.67055 -118.83810 34021 ft 414 kts 292°
2026-05-08 05:43 45.69194 -118.91443 34015 ft 413 kts 295°
2026-05-08 05:43 45.72378 -118.98245 33996 ft 414 kts 309°
2026-05-08 05:44 45.76125 -119.04499 33987 ft 414 kts 309°
2026-05-08 05:44 45.79860 -119.10783 33990 ft 414 kts 309°
2026-05-08 05:45 45.83583 -119.17081 33980 ft 414 kts 309°
2026-05-08 05:45 45.87301 -119.23385 33988 ft 414 kts 309°
2026-05-08 05:46 45.90998 -119.29719 33989 ft 414 kts 309°
2026-05-08 05:46 45.94710 -119.36035 33980 ft 413 kts 309°
2026-05-08 05:47 45.98412 -119.42360 33974 ft 414 kts 309°
2026-05-08 05:47 46.02119 -119.48688 33969 ft 414 kts 309°
2026-05-08 05:48 46.05814 -119.55040 33949 ft 414 kts 308°
2026-05-08 05:48 46.09489 -119.61357 33945 ft 414 kts 309°
2026-05-08 05:49 46.13179 -119.67714 33944 ft 413 kts 308°
2026-05-08 05:49 46.16860 -119.74084 33939 ft 413 kts 308°
2026-05-08 05:50 46.20545 -119.80461 33934 ft 414 kts 308°
2026-05-08 05:50 46.24225 -119.86852 33934 ft 414 kts 308°
2026-05-08 05:51 46.27905 -119.93258 33931 ft 414 kts 308°
2026-05-08 05:51 46.31574 -119.99666 33942 ft 414 kts 308°
2026-05-08 05:52 46.35242 -120.06079 33936 ft 414 kts 308°
2026-05-08 05:52 46.38914 -120.12497 33935 ft 413 kts 308°
2026-05-08 05:53 46.42574 -120.18911 33950 ft 413 kts 308°
2026-05-08 05:53 46.46222 -120.25341 33959 ft 413 kts 308°
2026-05-08 05:54 46.49862 -120.31782 33975 ft 412 kts 308°
2026-05-08 05:54 46.53500 -120.38220 33983 ft 412 kts 308°
2026-05-08 05:55 46.57110 -120.44687 33990 ft 412 kts 306°
2026-05-08 05:55 46.60400 -120.51498 33984 ft 412 kts 303°
2026-05-08 05:56 46.63661 -120.58341 33996 ft 412 kts 303°
2026-05-08 05:56 46.66893 -120.65148 33988 ft 411 kts 303°
2026-05-08 05:57 46.70150 -120.71994 33993 ft 411 kts 303°
2026-05-08 05:57 46.73405 -120.78837 33995 ft 410 kts 303°
2026-05-08 05:58 46.76640 -120.85671 33892 ft 406 kts 303°
2026-05-08 05:58 46.78245 -120.89071 33390 ft 407 kts 303°
2026-05-08 05:58 46.79850 -120.92469 32710 ft 406 kts 303°
2026-05-08 05:58 46.81449 -120.95866 32021 ft 407 kts 303°
2026-05-08 05:59 46.83053 -120.99283 31270 ft 408 kts 303°
2026-05-08 05:59 46.84658 -121.02707 30538 ft 409 kts 303°
2026-05-08 05:59 46.86267 -121.06144 29745 ft 410 kts 303°
2026-05-08 05:59 46.87883 -121.09589 28854 ft 411 kts 303°
2026-05-08 06:00 46.89502 -121.13039 27999 ft 412 kts 303°
2026-05-08 06:00 46.91119 -121.16511 27128 ft 414 kts 303°
2026-05-08 06:00 46.92739 -121.19995 26348 ft 414 kts 302°
2026-05-08 06:00 46.94358 -121.23477 25609 ft 413 kts 302°
2026-05-08 06:01 46.95971 -121.26948 24894 ft 412 kts 302°
2026-05-08 06:01 46.97583 -121.30399 24192 ft 409 kts 303°
2026-05-08 06:01 46.99184 -121.33829 23486 ft 407 kts 302°
2026-05-08 06:01 47.00780 -121.37252 22701 ft 405 kts 302°
2026-05-08 06:02 47.02362 -121.40654 21932 ft 403 kts 302°
2026-05-08 06:02 47.03936 -121.44044 21184 ft 402 kts 302°
2026-05-08 06:02 47.05500 -121.47421 20443 ft 400 kts 302°
2026-05-08 06:02 47.07053 -121.50789 19824 ft 395 kts 302°
2026-05-08 06:03 47.08560 -121.54076 19506 ft 381 kts 302°
2026-05-08 06:03 47.10011 -121.57240 19291 ft 366 kts 302°
2026-05-08 06:03 47.11413 -121.60270 19087 ft 352 kts 302°
2026-05-08 06:03 47.12765 -121.63194 18780 ft 342 kts 302°
2026-05-08 06:04 47.14091 -121.66079 18206 ft 340 kts 302°
2026-05-08 06:04 47.15414 -121.68961 17572 ft 339 kts 302°
2026-05-08 06:04 47.16729 -121.71828 16968 ft 338 kts 302°
2026-05-08 06:04 47.18036 -121.74686 16392 ft 336 kts 302°
2026-05-08 06:05 47.19339 -121.77531 15835 ft 334 kts 302°
2026-05-08 06:05 47.20615 -121.80322 15314 ft 332 kts 302°
2026-05-08 06:05 47.21482 -121.82222 15003 ft 329 kts 302°
2026-05-08 06:05 47.22742 -121.84991 14662 ft 325 kts 302°
2026-05-08 06:06 47.24403 -121.88634 14254 ft 323 kts 302°
2026-05-08 06:06 47.25654 -121.91382 13975 ft 322 kts 302°
2026-05-08 06:06 47.26899 -121.94117 13636 ft 321 kts 302°
2026-05-08 06:06 47.28137 -121.96838 13297 ft 319 kts 302°
2026-05-08 06:07 47.28969 -121.98672 13075 ft 318 kts 302°
2026-05-08 06:07 47.30191 -122.01368 12753 ft 316 kts 302°
2026-05-08 06:07 47.31404 -122.04048 12441 ft 313 kts 302°
2026-05-08 06:07 47.32606 -122.06714 12130 ft 312 kts 302°
2026-05-08 06:08 47.33819 -122.09399 11980 ft 315 kts 302°
2026-05-08 06:08 47.35019 -122.12057 11971 ft 315 kts 302°
2026-05-08 06:08 47.36218 -122.14710 11632 ft 309 kts 302°
2026-05-08 06:08 47.37604 -122.17074 11320 ft 303 kts 323°
2026-05-08 06:09 47.39519 -122.18226 11001 ft 299 kts 351°
2026-05-08 06:09 47.41585 -122.18189 10601 ft 297 kts
2026-05-08 06:09 47.43643 -122.17984 10175 ft 295 kts
2026-05-08 06:09 47.45689 -122.17884 9730 ft 293 kts 359°
2026-05-08 06:10 47.47721 -122.17866 9273 ft 291 kts 358°
2026-05-08 06:10 47.49736 -122.17898 8828 ft 289 kts 357°
2026-05-08 06:10 47.51740 -122.17958 8394 ft 287 kts 356°
2026-05-08 06:10 47.53731 -122.18032 7976 ft 285 kts 356°
2026-05-08 06:11 47.55706 -122.18112 7554 ft 283 kts 356°
2026-05-08 06:11 47.57650 -122.18163 7316 ft 275 kts 358°
2026-05-08 06:11 47.59522 -122.18202 7079 ft 264 kts 358°
2026-05-08 06:11 47.61340 -122.18256 6680 ft 259 kts 357°
2026-05-08 06:12 47.63129 -122.18333 6290 ft 255 kts 357°
2026-05-08 06:12 47.64887 -122.18422 5879 ft 251 kts 357°
2026-05-08 06:12 47.66620 -122.18507 5460 ft 248 kts 357°
2026-05-08 06:12 47.68317 -122.18774 5022 ft 244 kts 340°
2026-05-08 06:13 47.69744 -122.20053 4546 ft 240 kts 312°
2026-05-08 06:13 47.70557 -122.22157 4140 ft 235 kts 283°
2026-05-08 06:13 47.70652 -122.24517 4001 ft 227 kts 266°
2026-05-08 06:13 47.70549 -122.26847 3979 ft 226 kts 265°
2026-05-08 06:14 47.70175 -122.29079 3970 ft 225 kts 237°
2026-05-08 06:14 47.69038 -122.30643 3988 ft 226 kts 208°
2026-05-08 06:14 47.67562 -122.31410 3995 ft 226 kts 191°
2026-05-08 06:14 47.66058 -122.31655 3984 ft 212 kts 182°
2026-05-08 06:15 47.64607 -122.31636 3915 ft 204 kts 181°
2026-05-08 06:15 47.63208 -122.31645 3729 ft 203 kts 181°
2026-05-08 06:15 47.61786 -122.31657 3484 ft 197 kts 181°
2026-05-08 06:15 47.60476 -122.31667 3289 ft 187 kts 181°
2026-05-08 06:16 47.59200 -122.31678 3028 ft 180 kts 181°
2026-05-08 06:16 47.57962 -122.31689 2771 ft 175 kts 181°
2026-05-08 06:16 47.56767 -122.31699 2520 ft 168 kts 180°
2026-05-08 06:16 47.55640 -122.31708 2296 ft 156 kts 180°
2026-05-08 06:17 47.53504 -122.31726 1876 ft 153 kts 180°
2026-05-08 06:17 47.52492 -122.31734 1676 ft 137 kts 180°
2026-05-08 06:17 47.51545 -122.31743 1466 ft 135 kts 180°
2026-05-08 06:18 47.50603 -122.31747 1289 ft 135 kts 179°
2026-05-08 06:18 47.49662 -122.31757 1112 ft 135 kts 180°
2026-05-08 06:18 47.48725 -122.31763 928 ft 135 kts 180°
2026-05-08 06:18 47.47783 -122.31772 744 ft 135 kts 179°
2026-05-08 06:19 47.46841 -122.31783 579 ft 135 kts 180°
2026-05-08 06:19 47.45912 -122.31799 425 ft 127 kts 180°
2026-05-08 06:19 47.45178 -122.31805 398 ft 80 kts 180°
2026-05-08 06:19 47.44786 -122.31804 394 ft 39 kts 179°
2026-05-08 06:20 47.44518 -122.31802 385 ft 39 kts 179°
2026-05-08 06:20 47.44260 -122.31712 374 ft 35 kts 151°
2026-05-08 06:20 47.44071 -122.31550 372 ft 29 kts 149°
2026-05-08 06:20 47.43916 -122.31417 373 ft 20 kts 150°
2026-05-08 06:21 47.43817 -122.31326 375 ft 18 kts 122°
2026-05-08 06:21 47.43806 -122.31141 377 ft 19 kts 88°
2026-05-08 06:21 47.43808 -122.30931 379 ft 22 kts 90°
2026-05-08 06:21 47.43807 -122.30739 381 ft 16 kts 91°
2026-05-08 06:22 47.43839 -122.30641 384 ft 11 kts 14°
2026-05-08 06:22 47.43930 -122.30637 387 ft 14 kts 359°
2026-05-08 06:22 47.43989 -122.30586 389 ft 12 kts 75°
2026-05-08 06:22 47.43990 -122.30452 391 ft 14 kts 93°
2026-05-08 06:23 47.44009 -122.30295 393 ft 17 kts 59°
2026-05-08 06:23 47.44051 -122.30176 391 ft 13 kts 83°
2026-05-08 06:23 47.44030 -122.30082 396 ft 7 kts 133°
2026-05-08 06:23 47.43994 -122.30038 395 ft 7 kts 163°
2026-05-08 06:24 47.43955 -122.30060 391 ft 5 kts 226°
2026-05-08 06:24 47.43943 -122.30081 392 ft 2 kts 231°
2026-05-08 06:24 47.43939 -122.30088 394 ft 0 kts 231°
2026-05-08 06:34 47.43919 -122.30043 394 ft 0 kts 245°
2026-05-08 06:35 47.43955 -122.30136 392 ft 0 kts 239°